User: anonymous   Login
Location: Unspecified
(0.0000°N, 0.0000°E)
Time: 07:51:28
(UTC+00:00)
Language:

GONETS M 09 (M19) - Orbit

View from above orbital plane
View from above orbital plane
View from above satellite
View from above satellite

Ground track
Ground track

The orbit data is extracted from the following two-line orbital elements,

1 40062U 14036B   24113.94913969  .00000028  00000-0  12646-3 0  9999
2 40062  82.5084  75.3849 0024449  69.3806 290.9892 12.42911904444905
Epoch (UTC): 22 April 2024 22:46:45
Eccentricity: 0.0024449
inclination: 82.5084°
perigee height: 1475 km
apogee height: 1513 km
right ascension of ascending node: 75.3849°
argument of perigee: 69.3806°
revolutions per day: 12.42911904
mean anomaly at epoch: 290.9892°
orbit number at epoch: 44490

The dashed part of the orbit path shows where the satellite is in the earth's shadow,  

DLR